Location: Central Falls
(41.8900°N, 71.3929°W)
Time: 21:07:59
(UTC+00:00)

SR - All Passes

Search period start: 06 December 2023 00:00
Search period end: 16 December 2023 00:00
Orbit: 571 x 872 km, 66.7° (Epoch: 06 December)

Date Brightness Start Highest point End Pass type
(mag) Time Alt. Az. Time Alt. Az. Time Alt. Az.
06 Dec - 01:17:42 10° NW 01:23:25 62° WSW 01:28:42 10° SSE visible
06 Dec - 14:08:02 10° ESE 14:10:08 12° E 14:12:15 10° ENE daylight
06 Dec - 15:45:37 10° SSW 15:51:07 86° ESE 15:56:59 10° NNE daylight
06 Dec - 17:29:47 10° W 17:33:54 20° NW 17:38:09 10° N daylight
06 Dec - 22:45:22 10° N 22:48:45 15° NE 22:52:02 10° ENE visible
07 Dec - 00:26:05 10° NNW 00:31:53 69° ENE 00:37:16 10° SE visible
07 Dec - 02:09:29 10° WNW 02:13:10 18° WSW 02:16:42 10° SW visible
07 Dec - 14:54:33 10° S 14:59:43 44° ESE 15:05:11 10° NE daylight
07 Dec - 16:36:48 10° WSW 16:41:50 33° NW 16:47:07 10° NNE daylight
07 Dec - 23:34:44 10° NNW 23:40:07 37° NE 23:45:10 10° ESE visible
08 Dec - 01:16:52 10° NW 01:22:04 36° WSW 01:26:55 10° S visible
08 Dec - 14:04:26 10° SSE 14:08:32 22° ESE 14:12:50 10° ENE daylight
08 Dec - 15:44:32 10° SW 15:50:01 59° NW 15:55:49 10° NNE daylight
08 Dec - 17:30:19 10° WNW 17:33:17 14° NW 17:36:19 10° N daylight
08 Dec - 22:43:38 10° N 22:48:06 22° NE 22:52:22 10° E visible
09 Dec - 00:24:58 10° NW 00:30:43 73° WSW 00:36:04 10° SSE visible
09 Dec - 14:52:55 10° SSW 14:58:25 74° ESE 15:04:16 10° NNE daylight
09 Dec - 16:36:39 10° W 16:41:03 23° NW 16:45:36 10° N daylight
09 Dec - 21:52:57 10° N 21:55:51 14° NE 21:58:41 10° ENE visible
09 Dec - 23:33:25 10° NNW 23:39:08 59° NE 23:44:28 10° SE visible
10 Dec - 01:16:26 10° WNW 01:20:35 21° WSW 01:24:31 10° SSW visible
10 Dec - 14:02:03 10° S 14:07:04 37° ESE 14:12:22 10° NE daylight
10 Dec - 15:43:50 10° WSW 15:49:02 38° NW 15:54:29 10° NNE daylight
10 Dec - 22:42:07 10° NNW 22:47:18 33° NE 22:52:12 10° ESE visible
11 Dec - 00:24:03 10° NW 00:29:25 43° WSW 00:34:24 10° S visible
11 Dec - 13:12:13 10° SSE 13:15:56 19° ESE 13:19:47 10° ENE daylight
11 Dec - 14:51:43 10° SW 14:57:16 69° WNW 15:03:07 10° NNE daylight
11 Dec - 16:36:58 10° WNW 16:40:23 16° NW 16:43:51 10° N daylight
11 Dec - 21:51:05 10° N 21:55:13 20° NE 21:59:12 10° E visible
11 Dec - 23:32:14 10° NNW 23:38:01 85° WSW 23:43:21 10° SSE visible
12 Dec - 01:17:09 10° W 01:18:57 12° W 01:20:44 10° WSW visible
12 Dec - 14:00:16 10° SSW 14:05:43 63° ESE 14:11:30 10° NE daylight
12 Dec - 15:43:31 10° W 15:48:11 25° NW 15:53:01 10° N daylight
12 Dec - 21:00:36 10° N 21:02:54 12° NNE 21:05:10 10° NE daylight
12 Dec - 22:40:45 10° NNW 22:46:21 51° NE 22:51:35 10° SE visible
13 Dec - 00:23:26 10° NW 00:27:57 25° WSW 00:32:12 10° SSW visible
13 Dec - 13:09:35 10° S 13:14:25 32° ESE 13:19:29 10° NE daylight
13 Dec - 14:50:53 10° WSW 14:56:14 43° NW 15:01:50 10° NNE daylight
13 Dec - 16:38:08 10° NW 16:39:50 11° NNW 16:41:32 10° NNW daylight
13 Dec - 21:49:29 10° NNW 21:54:27 29° NE 21:59:09 10° ESE visible
13 Dec - 23:31:13 10° NW 23:36:43 51° WSW 23:41:49 10° S visible
14 Dec - 12:20:08 10° SE 12:23:19 16° ESE 12:26:35 10° ENE daylight
14 Dec - 13:58:55 10° SSW 14:04:30 80° WNW 14:10:24 10° NNE daylight
14 Dec - 15:43:39 10° W 15:47:28 18° NW 15:51:20 10° N daylight
14 Dec - 20:58:32 10° N 21:02:19 17° NE 21:05:57 10° E daylight
14 Dec - 22:39:29 10° NNW 22:45:16 82° ENE 22:50:35 10° SSE visible
15 Dec - 00:23:34 10° WNW 00:26:21 14° WSW 00:29:03 10° SW visible
15 Dec - 13:07:37 10° S 13:13:01 53° ESE 13:18:42 10° NE daylight
15 Dec - 14:50:26 10° WSW 14:55:19 29° NW 15:00:23 10° NNE daylight
15 Dec - 20:08:26 10° NNE 20:09:56 11° NNE 20:11:25 10° NE daylight
15 Dec - 21:48:03 10° NNW 21:53:32 43° NE 21:58:39 10° SE visible
15 Dec - 23:30:29 10° NW 23:35:17 29° WSW 23:39:48 10° SSW visible
